When you browse on this site, cookies collect data to enhance your experience and personalize the content and advertising you see.
Visit our Privacy Policy to learn more. By continuing to use the site, you agree to this use of cookies and data.
EN

Hourly Weather Codajas

Today, 12 August, Wednesday

Time Temperature Precipitation Wind Pressure Humidity
00:00 +27°C° 0.1 mm 0 mps 754 mmHg 65%
01:00 +26°C° 0.1 mm 0 mps 754 mmHg 68%
02:00 +25°C° 0 mm 0 mps 754 mmHg 81%
03:00 +24°C° 0.1 mm 0 mps 753 mmHg 84%
04:00 +23°C° 0.1 mm 0 mps 753 mmHg 88%
05:00 +23°C° 0.1 mm 0 mps 753 mmHg 91%
06:00 +24°C° 0 mm 0 mps 754 mmHg 89%
07:00 +25°C° 0 mm 0 mps 754 mmHg 86%
08:00 +26°C° 0 mm 0 mps 754 mmHg 84%
09:00 +31°C° 0 mm 1 mps 754 mmHg 69%
10:00 +34°C° 0 mm 1 mps 754 mmHg 54%
11:00 +37°C° 0 mm 1 mps 755 mmHg 39%
12:00 +37°C° 0 mm 1 mps 754 mmHg 39%
13:00 +37°C° 0 mm 1 mps 753 mmHg 39%
14:00 +37°C° 0 mm 1 mps 752 mmHg 39%
15:00 +36°C° 0 mm 1 mps 751 mmHg 42%
16:00 +35°C° 0 mm 1 mps 751 mmHg 44%
17:00 +34°C° 0 mm 1 mps 750 mmHg 47%
18:00 +33°C° 0 mm 1 mps 751 mmHg 51%
19:00 +29°C° 0 mm 0 mps 751 mmHg 54%
20:00 +28°C° 0 mm 0 mps 752 mmHg 57%
21:00 +28°C° 0 mm 0 mps 753 mmHg 59%
22:00 +28°C° 0 mm 0 mps 753 mmHg 60%
23:00 +28°C° 0 mm 0 mps 754 mmHg 61%

Tomorrow, 13 August, Thursday

Time Temperature Precipitation Wind Pressure Humidity
00:00 +27°C° 0 mm 0 mps 753 mmHg 64%
01:00 +26°C° 0 mm 0 mps 753 mmHg 67%
02:00 +26°C° 0 mm 0 mps 753 mmHg 69%
03:00 +25°C° 0 mm 0 mps 753 mmHg 71%
04:00 +25°C° 0 mm 0 mps 753 mmHg 72%
05:00 +25°C° 0 mm 0 mps 753 mmHg 74%
06:00 +26°C° 0 mm 0 mps 753 mmHg 70%
07:00 +27°C° 0 mm 0 mps 754 mmHg 67%
08:00 +30°C° 0 mm 1 mps 754 mmHg 64%
09:00 +32°C° 0 mm 1 mps 754 mmHg 56%
10:00 +35°C° 0 mm 1 mps 754 mmHg 48%
11:00 +38°C° 0 mm 2 mps 754 mmHg 40%
12:00 +39°C° 0 mm 2 mps 753 mmHg 37%
13:00 +40°C° 0 mm 2 mps 752 mmHg 34%
14:00 +41°C° 0 mm 2 mps 751 mmHg 31%
15:00 +40°C° 0 mm 2 mps 750 mmHg 34%
16:00 +39°C° 0 mm 1 mps 750 mmHg 37%
17:00 +37°C° 0 mm 1 mps 750 mmHg 40%
18:00 +36°C° 0 mm 1 mps 750 mmHg 44%
19:00 +34°C° 0 mm 1 mps 751 mmHg 48%
20:00 +32°C° 0 mm 1 mps 751 mmHg 51%
21:00 +29°C° 0 mm 0 mps 751 mmHg 54%
22:00 +29°C° 0 mm 0 mps 752 mmHg 56%
23:00 +28°C° 0 mm 0 mps 752 mmHg 58%

Day after tomorrow, 14 August, Friday

Time Temperature Precipitation Wind Pressure Humidity
00:00 +29°C° 0 mm 1 mps 752 mmHg 62%
01:00 +29°C° 0 mm 1 mps 752 mmHg 65%
02:00 +28°C° 0 mm 1 mps 751 mmHg 69%
03:00 +28°C° 0 mm 1 mps 751 mmHg 73%
04:00 +27°C° 0 mm 1 mps 751 mmHg 76%
05:00 +26°C° 0 mm 1 mps 752 mmHg 80%
06:00 +28°C° 0 mm 1 mps 752 mmHg 75%
07:00 +29°C° 0 mm 1 mps 753 mmHg 71%
08:00 +30°C° 0 mm 1 mps 754 mmHg 66%
09:00 +33°C° 0 mm 1 mps 754 mmHg 57%
10:00 +36°C° 0 mm 1 mps 754 mmHg 47%
11:00 +39°C° 0 mm 2 mps 754 mmHg 37%
12:00 +40°C° 0 mm 2 mps 753 mmHg 34%
13:00 +40°C° 0 mm 2 mps 752 mmHg 32%
14:00 +41°C° 0 mm 2 mps 751 mmHg 29%
15:00 +40°C° 0 mm 2 mps 750 mmHg 33%
16:00 +39°C° 0 mm 1 mps 750 mmHg 36%
17:00 +37°C° 0 mm 1 mps 750 mmHg 39%
18:00 +35°C° 0 mm 1 mps 750 mmHg 43%
19:00 +33°C° 0 mm 1 mps 750 mmHg 47%
20:00 +31°C° 0 mm 1 mps 751 mmHg 51%
21:00 +30°C° 0 mm 1 mps 751 mmHg 52%
22:00 +29°C° 0 mm 1 mps 751 mmHg 53%
23:00 +27°C° 0 mm 0 mps 752 mmHg 55%

15 August, Saturday

Time Temperature Precipitation Wind Pressure Humidity
00:00 +26°C° 0 mm 0 mps 751 mmHg 57%
01:00 +26°C° 0 mm 0 mps 751 mmHg 59%
02:00 +25°C° 0 mm 0 mps 751 mmHg 62%
03:00 +25°C° 0 mm 0 mps 751 mmHg 65%
04:00 +24°C° 0 mm 0 mps 751 mmHg 68%
05:00 +24°C° 0 mm 0 mps 751 mmHg 71%
06:00 +27°C° 0 mm 1 mps 752 mmHg 68%
07:00 +28°C° 0 mm 1 mps 753 mmHg 66%
08:00 +30°C° 0 mm 1 mps 753 mmHg 63%
09:00 +32°C° 0 mm 1 mps 753 mmHg 56%
10:00 +35°C° 0 mm 2 mps 753 mmHg 49%
11:00 +38°C° 0 mm 2 mps 753 mmHg 42%
12:00 +39°C° 0 mm 2 mps 752 mmHg 37%
13:00 +40°C° 0 mm 2 mps 751 mmHg 33%
14:00 +42°C° 0 mm 2 mps 750 mmHg 28%
15:00 +40°C° 0 mm 1 mps 750 mmHg 32%
16:00 +39°C° 0 mm 1 mps 750 mmHg 36%
17:00 +36°C° 0 mm 1 mps 749 mmHg 39%
18:00 +35°C° 0 mm 1 mps 750 mmHg 44%
19:00 +33°C° 0 mm 1 mps 750 mmHg 48%
20:00 +29°C° 0 mm 0 mps 751 mmHg 53%
21:00 +28°C° 0 mm 0 mps 751 mmHg 55%
22:00 +28°C° 0 mm 0 mps 752 mmHg 58%
23:00 +27°C° 0 mm 0 mps 752 mmHg 61%

16 August, Sunday

Time Temperature Precipitation Wind Pressure Humidity
00:00 +27°C° 0 mm 0 mps 752 mmHg 63%
01:00 +26°C° 0 mm 0 mps 751 mmHg 66%
02:00 +25°C° 0 mm 0 mps 751 mmHg 68%
03:00 +27°C° 0 mm 1 mps 751 mmHg 71%
04:00 +27°C° 0 mm 1 mps 751 mmHg 74%
05:00 +26°C° 0 mm 1 mps 751 mmHg 77%
06:00 +27°C° 0 mm 1 mps 752 mmHg 73%
07:00 +29°C° 0 mm 1 mps 753 mmHg 69%
08:00 +30°C° 0 mm 1 mps 754 mmHg 66%
09:00 +33°C° 0 mm 1 mps 754 mmHg 57%
10:00 +36°C° 0 mm 1 mps 754 mmHg 47%
11:00 +39°C° 0 mm 1 mps 754 mmHg 38%
12:00 +40°C° 0 mm 2 mps 753 mmHg 36%
13:00 +40°C° 0 mm 2 mps 752 mmHg 33%
14:00 +41°C° 0 mm 2 mps 751 mmHg 31%
15:00 +40°C° 0 mm 1 mps 750 mmHg 34%
16:00 +39°C° 0 mm 1 mps 750 mmHg 36%
17:00 +37°C° 0 mm 1 mps 750 mmHg 39%
18:00 +34°C° 0 mm 1 mps 750 mmHg 46%
19:00 +32°C° 0 mm 1 mps 751 mmHg 54%
20:00 +30°C° 0 mm 1 mps 751 mmHg 61%
21:00 +30°C° 0 mm 1 mps 751 mmHg 62%
22:00 +29°C° 0 mm 1 mps 752 mmHg 64%
23:00 +29°C° 0 mm 1 mps 752 mmHg 65%

17 August, Monday

Time Temperature Precipitation Wind Pressure Humidity
00:00 +29°C° 0 mm 1 mps 751 mmHg 67%
01:00 +28°C° 0 mm 1 mps 751 mmHg 68%
02:00 +28°C° 0 mm 1 mps 751 mmHg 70%
03:00 +28°C° 0 mm 1 mps 751 mmHg 73%
04:00 +27°C° 0 mm 1 mps 751 mmHg 76%
05:00 +26°C° 0 mm 1 mps 751 mmHg 79%
06:00 +28°C° 0 mm 1 mps 752 mmHg 75%
07:00 +29°C° 0 mm 1 mps 753 mmHg 70%
08:00 +30°C° 0 mm 1 mps 753 mmHg 65%
09:00 +34°C° 0 mm 1 mps 753 mmHg 55%
10:00 +36°C° 0 mm 0 mps 753 mmHg 44%
11:00 +39°C° 0 mm 0 mps 753 mmHg 33%
12:00 +39°C° 0 mm 0 mps 752 mmHg 31%
13:00 +42°C° 0 mm 1 mps 751 mmHg 29%
14:00 +41°C° 0 mm 1 mps 750 mmHg 27%
15:00 +40°C° 0 mm 1 mps 750 mmHg 30%
16:00 +36°C° 0 mm 0 mps 750 mmHg 33%
17:00 +35°C° 0 mm 0 mps 749 mmHg 36%
18:00 +33°C° 0 mm 0 mps 750 mmHg 39%
19:00 +32°C° 0 mm 0 mps 750 mmHg 41%
20:00 +30°C° 0 mm 0 mps 751 mmHg 44%
21:00 +30°C° 0 mm 0 mps 751 mmHg 46%
22:00 +29°C° 0 mm 0 mps 751 mmHg 47%
23:00 +29°C° 0 mm 0 mps 752 mmHg 49%
Show more